Hourly Data Report for May 22, 2022

DRYDEN REGIONAL
ONTARIO
Current Station Operator: NAVCAN

49°49'39.000" N
92°44'39.000" W
412.70 m
6032125
71527
YHD

Download Data

Hourly Data (May 2022)
Hourly Data Report for May 22, 2022
TIME
LST
Temp Definition
°C
Dew Point Definition
°C
Rel Hum Definition
%
Precip. Amount Definition
mm

Wind Dir Definition
10's deg

Wind Spd Definition
km/h
Visibility Definition
km
Stn Press Definition
kPa
Hmdx Definition


Wind Chill Definition


Weather Definition


00:00 2.6 0.0 83 0.0 25 9 16.1 97.16     Rain
01:00 2.4 0.0 84 0.0 25 8 16.1 97.16     LegendNANA
02:00 2.4 -0.1 83 0.0 25 8 16.1 97.16     LegendNANA
03:00 2.0 -0.4 84 0.0 24 13 16.1 97.13     LegendNANA
04:00 2.1 -0.1 86 0.0 24 11 16.1 97.15     LegendNANA
05:00 2.0 0.2 88 0.0 24 13 16.1 97.18     LegendNANA
06:00 2.5 0.2 85 0.0 25 9 16.1 97.22     LegendNANA
07:00 3.7 0.2 78 0.0 26 11 16.1 97.27     LegendNANA
08:00 5.4 -1.3 62 0.0 24 11 16.1 97.28     LegendNANA
09:00 8.2 -1.0 52 0.0 27 15 16.1 97.30     LegendNANA
10:00 10.1 -4.4 36 0.0 28 17 16.1 97.28     LegendNANA
11:00 9.9 -4.7 35 0.0 27 15 16.1 97.33     LegendNANA
12:00 11.7 -4.1 33 0.0 28 15 16.1 97.33     LegendNANA
13:00 12.5 -5.5 28 0.0 25 22 16.1 97.34     LegendNANA
14:00 11.5 -5.7 30 0.0 24 18 16.1 97.35     LegendNANA
15:00 13.0 -5.9 26 0.0 27 18 16.1 97.36     LegendNANA
16:00 13.3 -4.8 28 0.0 26 21 16.1 97.37     LegendNANA
17:00 12.4 -4.6 30 0.0 25 21 16.1 97.37     LegendNANA
18:00 12.0 -4.6 31 0.0 24 17 16.1 97.37     LegendNANA
19:00 12.1 -3.8 33 0.0 24 15 16.1 97.37     LegendNANA
20:00 10.0 -3.8 38 0.0 23 11 16.1 97.37     LegendNANA
21:00 8.7 -3.5 42 0.0 22 11 16.1 97.44     LegendNANA
22:00 7.3 -3.0 48 0.0 21 11 16.1 97.47     LegendNANA
23:00 6.3 -2.0 56 0.0 21 9 16.1 97.50     LegendNANA

Notes on Data Quality.

Legend

  • E = Estimated
  • M = Missing
  • NA = Not Available*
  • [empty] = Indicates an unobserved value
Date modified: